[[{"header":{"parameterUnit":"m.s-1","parameterCategory":1,"la1":30.2991,"la2":30.254,"lo1":-89.0895,"lo2":-89.0444,"dy":0.0017,"dx":0.0017,"nx":28,"ny":28,"refTime":"2025-06-01T03:00:00:Z","depth":0,"parameterNumber":2,"parameterNumberName":"U-component_of_WINDS"},"data":[0,0,0,0,0,0,0,0,0,0,0,0,0,0,0,0,0,0,0,0,0,0,0,0,0,0,0,0,0,0,0,0,0,0,0,0,0,0,0,0,0,0,0,0,0,0,0,0,0,0,0,0,0,0,0,0,0,0,0.7879,0.7879,0,0.789,0.7891,0.7891,0.7889,0.7889,0.7889,0.7889,0.79,0.79,0.7901,0,0,0,0,0,0,0,0,0,0,0,0,0,0.7854,0.7855,0.7879,0.7879,0.7879,0.789,0.7891,0.7891,0.7889,0.7889,0.7889,0.7888,0.79,0.79,0.7901,0,0,0,0,0,0,0,0,0,0,0,0,0,0.7865,0.7855,0.7879,0.788,0.788,0.789,0.7891,0.7891,0.7889,0.7889,0.7889,0.7888,0.7899,0.79,0.7901,0.7911,0,0,0.7903,0.7903,0,0,0,0,0,0,0,0,0.7865,0.7866,0.788,0.788,0.788,0.7888,0.7886,0.7897,0.7889,0.7886,0.7889,0.7888,0.7896,0.7897,0.79,0.7911,0.7912,0.7903,0.7903,0.7904,0.7904,0,0,0,0,0,0,0,0.7864,0.7866,0.7884,0.788,0.788,0.7879,0.788,0.7888,0.7892,0.7886,0.7886,0.7887,0.7896,0.7899,0.79,0.7912,0.7903,0.7904,0.7904,0.7904,0.793,0.793,0,0,0,0,0,0,0.7863,0.7865,0.7883,0.7884,0.7872,0.788,0.7881,0.7886,0.7892,0.7893,0.7888,0.7887,0.7898,0.7899,0.79,0.7911,0.7904,0.7904,0.7905,0.7929,0.793,0.793,0,0,0,0,0,0,0.7863,0.7865,0.7883,0.7875,0.7877,0.7881,0.7886,0.7886,0.7889,0.7893,0.7894,0.789,0.7898,0.7899,0.7908,0.7911,0.7905,0.7905,0.7929,0.7929,0.793,0.7933,0,0,0,0,0,0,0.7862,0.7865,0.7869,0.7875,0.7877,0.789,0.7886,0.7887,0.789,0.789,0.7896,0.7896,0.7898,0.7907,0.7908,0.7912,0.7906,0.7929,0.7929,0.793,0.7933,0.7934,0.7934,0,0,0,0,0,0.7861,0.787,0.7869,0.7871,0.7883,0.7891,0.7892,0.7894,0.7891,0.7895,0.7897,0.7896,0.7911,0.7907,0.7909,0.7914,0.7929,0.7929,0.793,0.7932,0.7933,0.7934,0,0,0,0,0,0,0.7865,0.7871,0.787,0.7881,0.7885,0.789,0.7896,0.7895,0.79,0.79,0.7901,0.7902,0.791,0.7913,0.7909,0.7922,0.7919,0.792,0.792,0.7921,0.7922,0.7921,0.7906,0,0,0,0,0,0.7867,0.7873,0.7878,0.7887,0.7889,0.7892,0.7896,0.7896,0.7901,0.7902,0.7905,0.791,0.7915,0.7918,0.7924,0.7933,0.7933,0.7937,0.7937,0.7938,0.7939,0.7942,0.7943,0.7932,0.7932,0.7932,0,0,0.7872,0.7875,0.788,0.7888,0.7891,0.7897,0.7894,0.79,0.7904,0.7903,0.7911,0.7913,0.7918,0.7926,0.793,0.7929,0.7942,0.7939,0.7939,0.794,0.7943,0.7944,0.7945,0.7932,0.7932,0.7932,0,0,0.7882,0.7887,0.7894,0.7897,0.7902,0.7903,0.7905,0.791,0.7911,0.7919,0.7918,0.7922,0.7932,0.7934,0.7937,0.7947,0.7946,0.7948,0.7953,0.7956,0.7957,0.7958,0.796,0.7961,0.7949,0.7949,0.7949,0,0.7887,0.7896,0.7898,0.7904,0.7907,0.7906,0.7912,0.7915,0.7922,0.7924,0.7922,0.7932,0.7936,0.7944,0.7946,0.7949,0.795,0.7948,0.7957,0.7958,0.7958,0.7961,0.7962,0.7949,0.7949,0.7949,0.7949,0,0.7901,0.7907,0.7913,0.7918,0.7922,0.7928,0.793,0.7933,0.7933,0.7934,0.7941,0.7944,0.795,0.7952,0.7952,0.7959,0.7958,0.7957,0.7953,0.796,0.7962,0.7963,0.795,0.795,0.795,0.795,0,0,0.7916,0.7921,0.7923,0.7924,0.7929,0.7933,0.7939,0.7944,0.7946,0.795,0.7954,0.7961,0.7959,0.7962,0.7963,0.7966,0.7971,0.7963,0.7964,0.7964,0.7978,0.7979,0.798,0.7971,0.7971,0.7971,0.7978,0,0.7926,0.7936,0.7937,0.7946,0.795,0.7949,0.7953,0.7956,0.7957,0.7961,0.7962,0.7967,0.7964,0.7966,0.7969,0.797,0.7974,0.797,0.7974,0.7974,0.7972,0.7981,0.7983,0.7989,0.7979,0.7979,0.7979,0,0.794,0.7944,0.7953,0.7955,0.7957,0.7962,0.7965,0.7969,0.7971,0.7972,0.7974,0.7974,0.7978,0.7975,0.7981,0.7978,0.7979,0.798,0.798,0.798,0.7977,0.7981,0.7991,0.7992,0.798,0.798,0.798,0,0.7948,0.7955,0.7961,0.7963,0.7966,0.7969,0.797,0.7973,0.7975,0.7978,0.7979,0.7983,0.7984,0.7987,0.7987,0.7984,0.7992,0.7989,0.7992,0.7992,0.7994,0.7994,0.8003,0.7996,0.7996,0.7996,0.7996,0,0.7959,0.7965,0.7965,0.7968,0.7974,0.7974,0.7979,0.798,0.7982,0.7985,0.7984,0.7987,0.7987,0.799,0.799,0.7994,0.7995,0.7995,0.7995,0.7995,0.7995,0.7996,0.7995,0.7996,0.7996,0.7996,0.7996,0,0.7969,0.7969,0.7976,0.7978,0.7978,0.7982,0.7984,0.7987,0.7987,0.7991,0.7992,0.7993,0.7996,0.7996,0.8,0.8,0.8004,0.8004,0.8003,0.8003,0.8006,0.8005,0.8016,0.8017,0.8009,0.8009,0.8009,0,0.7976,0.798,0.7982,0.7984,0.7985,0.7988,0.799,0.799,0.7992,0.7994,0.7997,0.8,0.8002,0.8007,0.8008,0.801,0.8009,0.8013,0.801,0.8009,0.8008,0.8008,0.8008,0.8013,0.8014,0.8014,0.8014,0,0.7987,0.7987,0.799,0.7992,0.7995,0.7997,0.7999,0.8,0.8,0.8002,0.8005,0.8007,0.801,0.8013,0.8015,0.8016,0.8014,0.8015,0.8015,0.8015,0.8014,0.8014,0.8004,0.8014,0.8014,0.8014,0.8014,0.8014,0.7995,0.7998,0.7999,0.8002,0.8003,0.8005,0.8007,0.8008,0.801,0.8013,0.8012,0.8015,0.8016,0.8019,0.802,0.8022,0.8021,0.8022,0.8022,0.8022,0.8022,0.8014,0.8022,0.8022,0.8022,0.8022,0.8022,0,0.8005,0.8006,0.8009,0.8011,0.8013,0.8011,0.8013,0.8014,0.8017,0.8018,0.802,0.8023,0.8025,0.8025,0.8027,0.8029,0.8028,0.8029,0.8029,0.8029,0.8024,0.8022,0.803,0.803,0.803,0.803,0.803,0.803,0.8011,0.8015,0.8015,0.8019,0.802,0.8022,0.8023,0.8024,0.8025,0.8028,0.803,0.803,0.803,0.8032,0.8034,0.8034,0.8034,0.8035,0.8035,0.803,0.8029,0.8029,0.8028,0.8036,0.8036,0.804,0.804,0.804]},{"header":{"parameterUnit":"m.s-1","parameterCategory":1,"la1":30.2991,"la2":30.254,"lo1":-89.0895,"lo2":-89.0444,"dy":0.0017,"dx":0.0017,"nx":28,"ny":28,"refTime":"2025-06-01T03:00:00:Z","depth":0,"parameterNumber":3,"parameterNumberName":"V-component_of_WINDS"},"data":[0,0,0,0,0,0,0,0,0,0,0,0,0,0,0,0,0,0,0,0,0,0,0,0,0,0,0,0,0,0,0,0,0,0,0,0,0,0,0,0,0,0,0,0,0,0,0,0,0,0,0,0,0,0,0,0,0,0,4.0809,4.0809,0,4.0799,4.0799,4.0799,4.0719,4.0717,4.0715,4.0713,4.0703,4.0704,4.0706,0,0,0,0,0,0,0,0,0,0,0,0,0,4.0758,4.076,4.0809,4.0809,4.0809,4.0799,4.0799,4.0799,4.0719,4.0717,4.0715,4.0712,4.0702,4.0704,4.0706,0,0,0,0,0,0,0,0,0,0,0,0,0,4.0768,4.076,4.0809,4.0768,4.0764,4.0799,4.0799,4.0799,4.072,4.0717,4.0714,4.0711,4.0702,4.0704,4.0706,4.078,0,0,4.0714,4.0715,0,0,0,0,0,0,0,0,4.0767,4.077,4.0774,4.0771,4.0767,4.0757,4.0777,4.0792,4.0721,4.0737,4.0713,4.071,4.0723,4.0724,4.0728,4.0779,4.0779,4.0714,4.0715,4.0716,4.0717,0,0,0,0,0,0,0,4.0767,4.077,4.0805,4.0774,4.077,4.075,4.0748,4.078,4.0747,4.0735,4.0729,4.0729,4.0721,4.0726,4.0728,4.0779,4.0714,4.0716,4.0717,4.0718,4.0886,4.0889,0,0,0,0,0,0,4.0772,4.077,4.0805,4.0805,4.076,4.0753,4.0751,4.0763,4.0746,4.0741,4.0732,4.0726,4.0724,4.0725,4.0727,4.0809,4.0716,4.0718,4.072,4.0883,4.0887,4.089,0,0,0,0,0,0,4.0771,4.0776,4.0806,4.0786,4.0788,4.0757,4.0772,4.0765,4.077,4.0744,4.0737,4.0744,4.0722,4.0724,4.0766,4.0808,4.0719,4.0721,4.0879,4.0884,4.0888,4.0976,0,0,0,0,0,0,4.077,4.0776,4.0804,4.0787,4.0789,4.0846,4.0774,4.0767,4.0774,4.0766,4.0753,4.0748,4.0719,4.0763,4.0769,4.0809,4.0723,4.0876,4.0882,4.0887,4.0969,4.0983,4.0995,0,0,0,0,0,4.0768,4.083,4.0806,4.0811,4.0824,4.0849,4.085,4.0816,4.0778,4.0805,4.0788,4.0748,4.0803,4.0769,4.0774,4.0816,4.0873,4.088,4.0887,4.0963,4.098,4.0994,0,0,0,0,0,0,4.0853,4.0827,4.08,4.0858,4.0856,4.0835,4.0869,4.0836,4.0845,4.0837,4.0794,4.0792,4.084,4.0833,4.0795,4.0884,4.0831,4.0839,4.0887,4.0903,4.0916,4.0915,4.0725,0,0,0,0,0,4.0879,4.0902,4.0877,4.0931,4.0931,4.0901,4.091,4.0884,4.088,4.0879,4.0865,4.0863,4.0879,4.0891,4.0905,4.0968,4.0963,4.0999,4.1012,4.1023,4.103,4.106,4.1075,4.0913,4.0913,4.0913,0,0,4.0931,4.092,4.0937,4.0947,4.0943,4.0966,4.09,4.0929,4.0946,4.0884,4.0922,4.0912,4.0907,4.096,4.0982,4.0955,4.1074,4.1032,4.104,4.1041,4.1068,4.1084,4.1097,4.0917,4.0917,4.0916,0,0,4.1039,4.1034,4.1076,4.1072,4.1066,4.1045,4.1055,4.104,4.103,4.1068,4.1021,4.1041,4.1071,4.1068,4.1071,4.1176,4.1138,4.1182,4.1247,4.1277,4.129,4.1301,4.1336,4.1349,4.1189,4.1189,4.1189,0,4.1105,4.1139,4.1102,4.1132,4.1137,4.1082,4.1123,4.1122,4.1121,4.1125,4.1095,4.1129,4.1122,4.1172,4.1197,4.1202,4.1211,4.1182,4.1291,4.1302,4.1311,4.1344,4.1358,4.1194,4.1194,4.1193,4.1193,0,4.1219,4.1243,4.1278,4.1277,4.1286,4.1323,4.129,4.1304,4.1276,4.1258,4.1297,4.1287,4.1296,4.1306,4.1281,4.1352,4.1335,4.1299,4.1243,4.1333,4.1362,4.1375,4.1201,4.12,4.1198,4.1197,0,0,4.1379,4.1356,4.1369,4.1367,4.1356,4.1373,4.1407,4.1415,4.1426,4.1428,4.1453,4.1479,4.1444,4.1447,4.1421,4.1448,4.1528,4.1407,4.1406,4.1428,4.1603,4.1628,4.1643,4.1504,4.1506,4.1508,4.1602,0,4.148,4.1535,4.1501,4.1561,4.1581,4.1528,4.1557,4.1552,4.1536,4.1551,4.1533,4.1551,4.1506,4.1507,4.1531,4.1513,4.1562,4.1506,4.1525,4.1526,4.1526,4.1659,4.1687,4.1776,4.1614,4.1616,4.1617,0,4.1605,4.161,4.1671,4.1653,4.166,4.1687,4.169,4.1706,4.1699,4.1686,4.1689,4.1655,4.1685,4.1632,4.1672,4.1635,4.1641,4.1633,4.1636,4.1634,4.1576,4.1659,4.1804,4.1816,4.1636,4.1634,4.1633,0,4.1712,4.1735,4.1773,4.1773,4.1754,4.1773,4.1766,4.1757,4.1763,4.1767,4.177,4.1778,4.1782,4.1788,4.1757,4.1722,4.18,4.1746,4.1788,4.1789,4.1805,4.1804,4.195,4.1814,4.1814,4.1813,4.1813,0,4.1827,4.1866,4.182,4.1844,4.1885,4.1846,4.1888,4.1876,4.1867,4.1887,4.1843,4.1862,4.1821,4.1836,4.1812,4.1847,4.185,4.1838,4.1831,4.1841,4.1842,4.1842,4.1834,4.1817,4.1816,4.1815,4.1815,0,4.1953,4.1924,4.1962,4.1941,4.1936,4.1967,4.1948,4.1968,4.1949,4.1974,4.1978,4.1948,4.1962,4.1933,4.1944,4.1928,4.1976,4.1961,4.1978,4.1972,4.2016,4.2011,4.2165,4.2183,4.2038,4.2039,4.204,0,4.2027,4.2055,4.2035,4.2045,4.204,4.2056,4.2062,4.2025,4.2033,4.2026,4.2047,4.2058,4.2065,4.2091,4.207,4.2078,4.206,4.2114,4.2061,4.2069,4.2058,4.2055,4.2057,4.2124,4.2126,4.2127,4.2129,0,4.216,4.2144,4.2154,4.2158,4.2166,4.2169,4.2168,4.2178,4.2138,4.215,4.2163,4.2169,4.2179,4.219,4.2193,4.2185,4.215,4.2146,4.2155,4.2164,4.2172,4.2166,4.2005,4.2142,4.214,4.2139,4.2139,4.2138,4.226,4.2281,4.227,4.2282,4.2277,4.2277,4.2294,4.2276,4.2287,4.2292,4.227,4.2289,4.228,4.2279,4.2275,4.2289,4.2265,4.228,4.2283,4.2286,4.2292,4.2172,4.229,4.2289,4.2289,4.2288,4.2288,0,4.2388,4.2378,4.2389,4.2388,4.2397,4.2364,4.236,4.237,4.2387,4.2381,4.2388,4.2403,4.2413,4.2393,4.2399,4.2414,4.2398,4.2417,4.2414,4.2412,4.2315,4.2304,4.2429,4.2429,4.2429,4.2429,4.2429,4.2429,4.2455,4.2489,4.2471,4.2501,4.2491,4.2508,4.2509,4.2508,4.2503,4.2521,4.2529,4.2515,4.2503,4.2508,4.2516,4.2509,4.2512,4.2537,4.2524,4.2433,4.2419,4.2406,4.2396,4.2538,4.2538,4.262,4.2621,4.2622]}]]